GEOFB GGOV-GBYD

Flight info

Callsign GEOFB
Flight time 0h 20m
Altitude 20000
Route POTOX DCT GUPAK
Aircraft C750/M-SBDE3FGHRWXY/S

Departure

Time 2026-04-12 16:15
Airport Osvaldo Vieira International Airport (GGOV)

Arrival

Time 2026-04-12 16:35
Airport Banjul International Airport (GBYD)
Time Latitude Longitude Altitude Speed Heading
2026-04-12 16:11 11.90091 -15.65164 110 ft 0 kts 19°
2026-04-12 16:14 11.90101 -15.65161 110 ft 12 kts 19°
2026-04-12 16:14 11.90572 -15.65001 104 ft 130 kts 18°
2026-04-12 16:14 11.91557 -15.64666 548 ft 156 kts 18°
2026-04-12 16:15 11.92703 -15.64666 1019 ft 184 kts 340°
2026-04-12 16:15 11.93894 -15.65329 1727 ft 205 kts 331°
2026-04-12 16:15 11.95196 -15.66072 2526 ft 224 kts 334°
2026-04-12 16:15 11.96651 -15.66828 3241 ft 246 kts 335°
2026-04-12 16:16 11.98250 -15.67660 4008 ft 265 kts 334°
2026-04-12 16:16 11.99856 -15.68515 5149 ft 264 kts 335°
2026-04-12 16:16 12.01498 -15.69384 6172 ft 268 kts 335°
2026-04-12 16:16 12.03162 -15.70261 7195 ft 272 kts 334°
2026-04-12 16:17 12.04861 -15.71156 8331 ft 276 kts 334°
2026-04-12 16:17 12.06583 -15.72064 9472 ft 282 kts 334°
2026-04-12 16:17 12.08351 -15.72997 10311 ft 291 kts 334°
2026-04-12 16:17 12.10232 -15.73989 10580 ft 320 kts 334°
2026-04-12 16:18 12.12315 -15.75088 10584 ft 354 kts 334°
2026-04-12 16:18 12.14597 -15.76294 10584 ft 383 kts 334°
2026-04-12 16:18 12.16981 -15.77557 10588 ft 397 kts 333°
2026-04-12 16:18 12.19437 -15.78857 10594 ft 400 kts 334°
2026-04-12 16:19 12.21893 -15.80155 10595 ft 399 kts 334°
2026-04-12 16:19 12.24352 -15.81452 10588 ft 397 kts 334°
2026-04-12 16:19 12.26821 -15.82758 10589 ft 399 kts 334°
2026-04-12 16:19 12.29291 -15.84066 10587 ft 404 kts 333°
2026-04-12 16:20 12.31770 -15.85378 10588 ft 399 kts 333°
2026-04-12 16:20 12.34241 -15.86684 10585 ft 397 kts 333°
2026-04-12 16:20 12.36704 -15.87987 10582 ft 400 kts 333°
2026-04-12 16:20 12.39144 -15.89280 10584 ft 400 kts 333°
2026-04-12 16:21 12.41614 -15.90587 10748 ft 401 kts 333°
2026-04-12 16:21 12.44026 -15.91999 10854 ft 402 kts 326°
2026-04-12 16:21 12.46242 -15.93724 10881 ft 400 kts 323°
2026-04-12 16:21 12.48439 -15.95498 10888 ft 404 kts 323°
2026-04-12 16:22 12.50671 -15.97239 10889 ft 404 kts 324°
2026-04-12 16:22 12.52918 -15.98952 10890 ft 406 kts 324°
2026-04-12 16:22 12.55165 -16.00696 10895 ft 405 kts 323°
2026-04-12 16:22 12.57376 -16.02440 10888 ft 404 kts 323°
2026-04-12 16:23 12.59614 -16.04192 10891 ft 405 kts 324°
2026-04-12 16:23 12.61860 -16.05931 10890 ft 405 kts 324°
2026-04-12 16:23 12.64105 -16.07678 10891 ft 406 kts 323°
2026-04-12 16:23 12.66327 -16.09418 10891 ft 402 kts 323°
2026-04-12 16:24 12.68549 -16.11154 10887 ft 405 kts 323°
2026-04-12 16:24 12.70791 -16.12901 10888 ft 402 kts 323°
2026-04-12 16:24 12.73012 -16.14634 10887 ft 402 kts 323°
2026-04-12 16:24 12.75230 -16.16368 10888 ft 398 kts 323°
2026-04-12 16:25 12.77452 -16.18103 10889 ft 402 kts 323°
2026-04-12 16:25 12.79635 -16.19808 10888 ft 401 kts 323°
2026-04-12 16:25 12.81840 -16.21531 10891 ft 401 kts 323°
2026-04-12 16:25 12.84057 -16.23264 10893 ft 403 kts 323°
2026-04-12 16:26 12.86285 -16.25006 10891 ft 399 kts 323°
2026-04-12 16:26 12.88486 -16.26727 10818 ft 388 kts 323°
2026-04-12 16:26 12.90528 -16.28326 10373 ft 352 kts 324°
2026-04-12 16:26 12.92399 -16.29792 9926 ft 325 kts 323°
2026-04-12 16:27 12.94137 -16.31150 9477 ft 303 kts 324°
2026-04-12 16:27 12.95743 -16.32406 9102 ft 288 kts 324°
2026-04-12 16:27 12.97321 -16.33640 8731 ft 283 kts 324°
2026-04-12 16:27 12.98886 -16.34864 8371 ft 282 kts 324°
2026-04-12 16:28 13.00434 -16.36076 8010 ft 279 kts 324°
2026-04-12 16:28 13.01971 -16.37281 7643 ft 278 kts 324°
2026-04-12 16:28 13.03500 -16.38478 7269 ft 275 kts 324°
2026-04-12 16:28 13.05012 -16.39662 6916 ft 273 kts 324°
2026-04-12 16:29 13.06518 -16.40842 6541 ft 271 kts 324°
2026-04-12 16:29 13.08005 -16.42007 6187 ft 266 kts 324°
2026-04-12 16:29 13.09441 -16.43133 5838 ft 266 kts 324°
2026-04-12 16:29 13.10912 -16.44285 5485 ft 266 kts 324°
2026-04-12 16:30 13.12390 -16.45443 5125 ft 268 kts 324°
2026-04-12 16:30 13.13870 -16.46604 4773 ft 267 kts 324°
2026-04-12 16:30 13.15349 -16.47764 4415 ft 268 kts 324°
2026-04-12 16:30 13.16816 -16.48915 4052 ft 266 kts 324°
2026-04-12 16:31 13.18284 -16.50065 3700 ft 266 kts 325°
2026-04-12 16:31 13.19760 -16.51223 3361 ft 268 kts 324°
2026-04-12 16:31 13.21213 -16.52363 2998 ft 265 kts 324°
2026-04-12 16:31 13.22670 -16.53508 2654 ft 261 kts 325°
2026-04-12 16:32 13.24075 -16.54613 2301 ft 238 kts 325°
2026-04-12 16:32 13.25309 -16.55586 1979 ft 209 kts 325°
2026-04-12 16:32 13.26332 -16.56425 1687 ft 177 kts 320°
2026-04-12 16:32 13.27164 -16.57342 1680 ft 175 kts 315°
2026-04-12 16:33 13.27988 -16.58298 1469 ft 177 kts 314°
2026-04-12 16:33 13.28793 -16.59258 1244 ft 177 kts 314°
2026-04-12 16:33 13.29596 -16.60218 1027 ft 179 kts 314°
2026-04-12 16:33 13.30327 -16.61100 814 ft 146 kts 311°
2026-04-12 16:34 13.30932 -16.61824 637 ft 129 kts 310°
2026-04-12 16:34 13.31521 -16.62528 480 ft 132 kts 310°
2026-04-12 16:34 13.32116 -16.63237 304 ft 127 kts 308°
2026-04-12 16:34 13.32675 -16.63905 151 ft 122 kts 308°
2026-04-12 16:35 13.33200 -16.64535 92 ft 96 kts 309°
2026-04-12 16:35 13.33355 -16.64719 89 ft 0 kts 309°